Regional Weather Roundup
Issued by NWS

Home | Current Version | Previous Version | Graphics & Text | Print | Product List | Glossary On
Versions: 1 2 3 4 5 6 7 8 9 10 11 12 13 14 15 16 17 18 19 20 21 22 23 24 25 26 27 28 29 30 31 32 33 34 35 36 37 38 39 40 41 42 43 44 45 46 47 48 49 50
000
ASUS43 KLSX 111159
RWRMO

WEATHER SUMMARY FOR MISSOURI
NATIONAL WEATHER SERVICE SPRINGFIELD MO
700 AM CDT FRI JUL 11 2014

NOTE: "FAIR" INDICATES FEW OR NO CLOUDS BELOW 12,000 FEET WITH NO
       SIGNIFICANT WEATHER AND/OR OBSTRUCTIONS TO VISIBILITY.
       CURRENT SKY AND/OR WEATHER CONDITIONS ARE NOT AVAILABLE FOR
       CHILLICOTHE AND FARMINGTON.

MOZ001>031-035>038-043-044-053-054-111300-
...NORTHERN AND WESTERN MISSOURI...

CITY           SKY/WX    TMP DP  RH WIND       PRES   REMARKS
KANSAS CTY INT MOCLDY    70  66  87 SE14      30.05S
6HR MIN TEMP:  68; 6HR MAX TEMP:  71;

KANSAS C DTWN  MOCLDY    72  66  81 SE5       30.05S
6HR MIN TEMP:  70; 6HR MAX TEMP:  75;

LEE`S SUMMIT   PTCLDY    68  65  90 SE6       30.08R
6HR MIN TEMP:  68; 6HR MAX TEMP:  71;

ST JOSEPH      MOCLDY    69  66  90 S12       30.04R
6HR MIN TEMP:  68; 6HR MAX TEMP:  72;

CHILLICOTHE      N/A     68  62  81 SE8       30.09F
6HR MIN TEMP:  67; 6HR MAX TEMP:  70;

KIRKSVILLE     MOSUNNY   63  58  83 SE8       30.14R
6HR MIN TEMP:  61; 6HR MAX TEMP:  64;


$$
MOZ066>068-077>081-088>096-101>105-111300-
...SOUTHWEST MISSOURI...

CITY           SKY/WX    TMP DP  RH WIND       PRES   REMARKS
SPRINGFIELD    PTCLDY    69  66  90 S9        30.13R
6HR MIN TEMP:  68; 6HR MAX TEMP:  69;

JOPLIN         CLEAR     70  64  81 SE6       30.10R
6HR MIN TEMP:  68; 6HR MAX TEMP:  70;


$$
MOZ032>034-039>042-045>050-055>058-069>072-111300-
...CENTRAL MISSOURI...

CITY           SKY/WX    TMP DP  RH WIND       PRES   REMARKS
COLUMBIA       SUNNY     66  63  90 SE6       30.14R
6HR MIN TEMP:  64; 6HR MAX TEMP:  68;

JEFFERSON CITY SUNNY     66  63  90 SE5       30.13R
6HR MIN TEMP:  65; 6HR MAX TEMP:  68;

ROLLA          SUNNY     66  61  84 SE7       30.15R
6HR MIN TEMP:  62; 6HR MAX TEMP:  66;

SEDALIA        MOSUNNY   68  66  93 SE8       30.11F
6HR MIN TEMP:  65; 6HR MAX TEMP:  69;

OSAGE BEACH    MOSUNNY   68  63  83 SE5       30.13S

$$
MOZ051-052-059>065-111300-
...EAST CENTRAL MISSOURI...

CITY           SKY/WX    TMP DP  RH WIND       PRES   REMARKS
ST LOUIS INTL  MOSUNNY   69  59  70 E7        30.17R
6HR MIN TEMP:  66; 6HR MAX TEMP:  69;

SPIRIT OF STL  SUNNY     64  60  87 CALM      30.16R
6HR MIN TEMP:  59; 6HR MAX TEMP:  64;

ST CHARLES     SUNNY     64  60  87 E5        30.16R
6HR MIN TEMP:  62; 6HR MAX TEMP:  66;


$$
MOZ072>076-082>087-097>100-106>115-111300-
...SOUTH CENTRAL AND SOUTHEAST MISSOURI...

CITY           SKY/WX    TMP DP  RH WIND       PRES   REMARKS
CAPE GIRARDEAU SUNNY     68  67  96 CALM      30.16R FOG
6HR MIN TEMP:  65; 6HR MAX TEMP:  69;

FARMINGTON     SUNNY     61  61 100 CALM      30.20R
6HR MIN TEMP:  59; 6HR MAX TEMP:  63;

POPLAR BLUFF   CLOUDY    70  64  81 CALM      30.14R
6HR MIN TEMP:  67; 6HR MAX TEMP:  70;

WEST PLAINS    CLOUDY    68  65  90 CALM      30.18R
6HR MIN TEMP:  65; 6HR MAX TEMP:  71;


$$


USA.gov is the U.S. government's official web portal to all federal, state and local government web resources and services.